Find Starlink 4504

NORAD ID: 53555 Int'l Des: 2022-101 Owner: SPXS Country: US Constellation: starlink operational
LEOCIRCULAR

Live Position

Loading 3D Globe...

About Starlink 4504

Description loading...

Upcoming Passes

Passes for default location (London). Set your location on the main map for personalized predictions.

Altitude History

Loading altitude history...

Two-Line Element Set

1 53555U 22101AE 26107.08931058 .00000120 00000-0 25646-4 0 9999
2 53555 53.2177 251.7375 0001287 90.4080 269.7059 15.08837024202762
Epoch: Apr 17, 2026 • Age: 14 hours

Current Status

Altitude 557.2 km
Velocity 7.58 km/s
Sub-Earth Point -48.27°S, 104.59°E
Launch Date Aug 19, 2022
Age 3.6 years
Type internet

Technical Details

Classification Payload
Mass 300.00 kg
Dry Mass 290.00 kg
Total Mass 300.00 kg
Length 0.20 m
Diameter 2.80 m
Span 9.00 m
Shape Box + pan
Manufacturer SPXS
Bus Type Starlink
Phase Status In Orbit
Owner/State SPXS/US

Most Searched